When you browse on this site, cookies collect data to enhance your experience and personalize the content and advertising you see.
Visit our Privacy Policy to learn more. By continuing to use the site, you agree to this use of cookies and data.

Hourly Weather Chitole

Today, 12 July, Sunday

Time Temperature Precipitation Wind Pressure Humidity
00:00 +16°C° 0 mm 3 mps 672 mmHg 28%
01:00 +14°C° 0 mm 2 mps 672 mmHg 29%
02:00 +13°C° 0 mm 2 mps 672 mmHg 29%
03:00 +13°C° 0 mm 2 mps 672 mmHg 29%
04:00 +11°C° 0 mm 3 mps 672 mmHg 29%
05:00 +11°C° 0 mm 3 mps 673 mmHg 29%
06:00 +12°C° 0 mm 3 mps 673 mmHg 29%
07:00 +13°C° 0 mm 3 mps 674 mmHg 30%
08:00 +18°C° 0 mm 4 mps 675 mmHg 26%
09:00 +21°C° 0 mm 4 mps 675 mmHg 22%
10:00 +26°C° 0 mm 4 mps 676 mmHg 18%
11:00 +28°C° 0 mm 4 mps 676 mmHg 18%
12:00 +29°C° 0 mm 4 mps 675 mmHg 18%
13:00 +31°C° 0 mm 3 mps 674 mmHg 18%
14:00 +31°C° 0 mm 3 mps 674 mmHg 17%
15:00 +31°C° 0 mm 3 mps 673 mmHg 17%
16:00 +31°C° 0 mm 3 mps 673 mmHg 16%
17:00 +28°C° 0 mm 3 mps 673 mmHg 20%
18:00 +25°C° 0 mm 3 mps 673 mmHg 23%
19:00 +21°C° 0 mm 3 mps 673 mmHg 26%
20:00 +19°C° 0 mm 3 mps 673 mmHg 28%
21:00 +18°C° 0 mm 3 mps 673 mmHg 29%
22:00 +17°C° 0 mm 3 mps 673 mmHg 30%
23:00 +16°C° 0 mm 3 mps 672 mmHg 30%

Tomorrow, 13 July, Monday

Time Temperature Precipitation Wind Pressure Humidity
00:00 +14°C° 0 mm 3 mps 672 mmHg 30%
01:00 +13°C° 0 mm 3 mps 672 mmHg 31%
02:00 +12°C° 0 mm 3 mps 672 mmHg 32%
03:00 +12°C° 0 mm 3 mps 672 mmHg 33%
04:00 +11°C° 0 mm 3 mps 671 mmHg 35%
05:00 +11°C° 0 mm 3 mps 672 mmHg 35%
06:00 +12°C° 0 mm 3 mps 672 mmHg 34%
07:00 +13°C° 0 mm 2 mps 673 mmHg 34%
08:00 +17°C° 0 mm 3 mps 674 mmHg 32%
09:00 +21°C° 0 mm 3 mps 674 mmHg 29%
10:00 +26°C° 0 mm 3 mps 675 mmHg 27%
11:00 +28°C° 0 mm 3 mps 674 mmHg 24%
12:00 +30°C° 0 mm 3 mps 674 mmHg 21%
13:00 +31°C° 0 mm 3 mps 673 mmHg 18%
14:00 +31°C° 0 mm 3 mps 673 mmHg 18%
15:00 +31°C° 0 mm 3 mps 672 mmHg 17%
16:00 +31°C° 0 mm 3 mps 672 mmHg 16%
17:00 +28°C° 0 mm 3 mps 672 mmHg 19%
18:00 +25°C° 0 mm 3 mps 671 mmHg 22%
19:00 +21°C° 0 mm 3 mps 671 mmHg 26%
20:00 +20°C° 0 mm 3 mps 671 mmHg 27%
21:00 +18°C° 0 mm 2 mps 671 mmHg 28%
22:00 +17°C° 0 mm 2 mps 671 mmHg 30%
23:00 +16°C° 0 mm 2 mps 671 mmHg 31%

Day after tomorrow, 14 July, Tuesday

Time Temperature Precipitation Wind Pressure Humidity
00:00 +14°C° 0 mm 3 mps 671 mmHg 31%
01:00 +14°C° 0 mm 3 mps 671 mmHg 32%
02:00 +13°C° 0 mm 3 mps 671 mmHg 33%
03:00 +12°C° 0 mm 3 mps 671 mmHg 33%
04:00 +12°C° 0 mm 3 mps 671 mmHg 34%
05:00 +12°C° 0 mm 3 mps 671 mmHg 35%
06:00 +14°C° 0 mm 2 mps 672 mmHg 36%
07:00 +14°C° 0 mm 2 mps 673 mmHg 37%
08:00 +18°C° 0 mm 3 mps 673 mmHg 33%
09:00 +22°C° 0 mm 3 mps 674 mmHg 29%
10:00 +27°C° 0 mm 3 mps 675 mmHg 25%
11:00 +28°C° 0 mm 3 mps 674 mmHg 21%
12:00 +30°C° 0 mm 3 mps 674 mmHg 18%
13:00 +33°C° 0 mm 3 mps 673 mmHg 14%
14:00 +32°C° 0 mm 4 mps 673 mmHg 14%
15:00 +32°C° 0 mm 4 mps 672 mmHg 14%
16:00 +32°C° 0 mm 4 mps 672 mmHg 13%
17:00 +28°C° 0 mm 3 mps 672 mmHg 17%
18:00 +24°C° 0 mm 2 mps 672 mmHg 21%
19:00 +20°C° 0 mm 2 mps 672 mmHg 24%
20:00 +19°C° 0 mm 2 mps 672 mmHg 26%
21:00 +18°C° 0 mm 3 mps 672 mmHg 27%
22:00 +17°C° 0 mm 3 mps 672 mmHg 28%
23:00 +16°C° 0 mm 3 mps 672 mmHg 29%

15 July, Wednesday

Time Temperature Precipitation Wind Pressure Humidity
00:00 +14°C° 0 mm 3 mps 672 mmHg 29%
01:00 +13°C° 0 mm 3 mps 672 mmHg 30%
02:00 +12°C° 0 mm 3 mps 672 mmHg 30%
03:00 +11°C° 0 mm 3 mps 672 mmHg 31%
04:00 +10°C° 0 mm 2 mps 672 mmHg 32%
05:00 +11°C° 0 mm 3 mps 673 mmHg 31%
06:00 +11°C° 0 mm 3 mps 674 mmHg 30%
07:00 +12°C° 0 mm 3 mps 675 mmHg 29%
08:00 +17°C° 0 mm 4 mps 675 mmHg 24%
09:00 +21°C° 0 mm 5 mps 676 mmHg 20%
10:00 +26°C° 0 mm 5 mps 677 mmHg 15%
11:00 +27°C° 0 mm 5 mps 676 mmHg 14%
12:00 +29°C° 0 mm 5 mps 676 mmHg 13%
13:00 +32°C° 0 mm 5 mps 675 mmHg 11%
14:00 +32°C° 0 mm 5 mps 675 mmHg 11%
15:00 +32°C° 0 mm 5 mps 674 mmHg 11%
16:00 +30°C° 0 mm 5 mps 674 mmHg 11%
17:00 +27°C° 0 mm 4 mps 674 mmHg 14%
18:00 +25°C° 0 mm 4 mps 674 mmHg 17%
19:00 +21°C° 0 mm 3 mps 674 mmHg 20%
20:00 +19°C° 0 mm 3 mps 674 mmHg 23%
21:00 +18°C° 0 mm 3 mps 674 mmHg 25%
22:00 +17°C° 0 mm 3 mps 674 mmHg 28%
23:00 +17°C° 0 mm 3 mps 674 mmHg 31%

16 July, Thursday

Time Temperature Precipitation Wind Pressure Humidity
00:00 +15°C° 0 mm 4 mps 674 mmHg 33%
01:00 +15°C° 0 mm 4 mps 674 mmHg 36%
02:00 +14°C° 0 mm 4 mps 674 mmHg 38%
03:00 +13°C° 0 mm 4 mps 674 mmHg 39%
04:00 +13°C° 0 mm 4 mps 674 mmHg 41%
05:00 +13°C° 0 mm 4 mps 675 mmHg 43%
06:00 +13°C° 0 mm 5 mps 676 mmHg 45%
07:00 +13°C° 0 mm 6 mps 677 mmHg 47%
08:00 +16°C° 0 mm 6 mps 677 mmHg 44%
09:00 +19°C° 0 mm 6 mps 678 mmHg 40%
10:00 +21°C° 0 mm 7 mps 678 mmHg 37%
11:00 +23°C° 0 mm 6 mps 678 mmHg 33%
12:00 +24°C° 0 mm 6 mps 677 mmHg 29%
13:00 +26°C° 0 mm 6 mps 677 mmHg 25%
14:00 +27°C° 0 mm 6 mps 676 mmHg 24%
15:00 +27°C° 0 mm 6 mps 676 mmHg 23%
16:00 +27°C° 0 mm 6 mps 676 mmHg 22%
17:00 +23°C° 0 mm 5 mps 676 mmHg 26%
18:00 +21°C° 0 mm 5 mps 676 mmHg 30%
19:00 +18°C° 0 mm 4 mps 676 mmHg 35%
20:00 +17°C° 0 mm 4 mps 676 mmHg 38%
21:00 +15°C° 0 mm 4 mps 676 mmHg 42%
22:00 +13°C° 0 mm 4 mps 676 mmHg 45%
23:00 +12°C° 0 mm 4 mps 676 mmHg 50%

17 July, Friday

Time Temperature Precipitation Wind Pressure Humidity
00:00 +11°C° 0 mm 4 mps 676 mmHg 54%
01:00 +10°C° 0 mm 3 mps 675 mmHg 59%
02:00 +9°C° 0 mm 3 mps 675 mmHg 62%
03:00 +8°C° 0 mm 3 mps 675 mmHg 64%
04:00 +7°C° 0 mm 3 mps 675 mmHg 67%
05:00 +7°C° 0 mm 4 mps 676 mmHg 65%
06:00 +7°C° 0 mm 4 mps 676 mmHg 63%
07:00 +8°C° 0 mm 5 mps 677 mmHg 60%
08:00 +12°C° 0 mm 5 mps 677 mmHg 53%
09:00 +14°C° 0 mm 6 mps 678 mmHg 45%
10:00 +17°C° 0 mm 6 mps 678 mmHg 38%
11:00 +20°C° 0 mm 5 mps 677 mmHg 33%
12:00 +22°C° 0 mm 5 mps 677 mmHg 28%
13:00 +23°C° 0 mm 5 mps 676 mmHg 23%
14:00 +23°C° 0 mm 5 mps 676 mmHg 22%
15:00 +23°C° 0 mm 5 mps 675 mmHg 21%
16:00 +23°C° 0 mm 5 mps 675 mmHg 20%
17:00 +21°C° 0 mm 5 mps 675 mmHg 25%
18:00 +18°C° 0 mm 4 mps 674 mmHg 29%
19:00 +14°C° 0 mm 3 mps 674 mmHg 34%
20:00 +13°C° 0 mm 3 mps 674 mmHg 36%
21:00 +12°C° 0 mm 3 mps 674 mmHg 39%
22:00 +11°C° 0 mm 3 mps 674 mmHg 41%
23:00 +10°C° 0 mm 3 mps 674 mmHg 43%
Show more